Time,TemperatureF,DewpointF,PressureIn,WindDirection,WindDirectionDegrees,WindSpeedMPH,WindSpeedGustMPH,Humidity,HourlyPrecipIn,Conditions,Clouds,dailyrainin,SoftwareType,DateUTC
2014-04-19 00:02:00,57.2,41.2,30.08,SE,145,10.0,12.0,55,0.00,,---,0.00,VWS V15.00,2014-04-19 05:02:00,
2014-04-19 00:07:00,57.1,41.1,30.08,SE,125,8.0,11.0,55,0.00,,---,0.00,VWS V15.00,2014-04-19 05:07:00,
2014-04-19 00:12:00,57.0,41.0,30.08,SE,141,7.0,10.0,55,0.00,,---,0.00,VWS V15.00,2014-04-19 05:12:00,
2014-04-19 00:17:00,56.9,40.9,30.08,SE,144,9.0,10.0,55,0.00,,---,0.00,VWS V15.00,2014-04-19 05:17:00,
2014-04-19 00:22:00,57.0,41.0,30.08,ESE,112,8.0,13.0,55,0.00,,---,0.00,VWS V15.00,2014-04-19 05:22:00,
2014-04-19 00:27:00,57.1,41.1,30.08,SSE,151,7.0,11.0,55,0.00,,---,0.00,VWS V15.00,2014-04-19 05:27:00,
2014-04-19 00:32:00,57.1,41.1,30.08,SSE,154,12.0,13.0,55,0.00,,---,0.00,VWS V15.00,2014-04-19 05:32:00,
2014-04-19 00:36:00,57.1,41.1,30.08,SE,141,12.0,13.0,55,0.00,,---,0.00,VWS V15.00,2014-04-19 05:36:00,
2014-04-19 00:41:00,57.1,41.1,30.08,SE,145,14.0,15.0,55,0.00,,---,0.00,VWS V15.00,2014-04-19 05:41:00,
2014-04-19 00:46:00,57.1,41.1,30.08,SE,146,14.0,16.0,55,0.00,,---,0.00,VWS V15.00,2014-04-19 05:46:00,
2014-04-19 00:51:00,57.1,41.6,30.07,SSE,167,11.0,13.0,56,0.00,,---,0.00,VWS V15.00,2014-04-19 05:51:00,
2014-04-19 00:56:00,57.0,41.5,30.07,SE,141,13.0,20.0,56,0.00,,---,0.00,VWS V15.00,2014-04-19 05:56:00,
2014-04-19 01:01:00,57.0,41.5,30.07,SSE,153,11.0,17.0,56,0.00,,---,0.00,VWS V15.00,2014-04-19 06:01:00,
2014-04-19 01:06:00,56.8,41.3,30.07,SSE,156,12.0,16.0,56,0.00,,---,0.00,VWS V15.00,2014-04-19 06:06:00,
2014-04-19 01:11:00,56.5,41.5,30.08,SE,138,13.0,18.0,57,0.00,,---,0.00,VWS V15.00,2014-04-19 06:11:00,
2014-04-19 01:16:00,56.4,41.4,30.07,SSE,153,14.0,16.0,57,0.00,,---,0.00,VWS V15.00,2014-04-19 06:16:00,
2014-04-19 01:21:00,56.2,41.2,30.07,SSE,151,13.0,17.0,57,0.00,,---,0.00,VWS V15.00,2014-04-19 06:21:00,
2014-04-19 01:26:00,56.0,41.5,30.07,SE,136,12.0,17.0,58,0.00,,---,0.00,VWS V15.00,2014-04-19 06:26:00,
2014-04-19 01:31:00,55.8,41.3,30.07,SSE,150,11.0,15.0,58,0.00,,---,0.00,VWS V15.00,2014-04-19 06:31:00,
2014-04-19 01:35:00,55.8,41.3,30.07,SE,132,10.0,17.0,58,0.00,,---,0.00,VWS V15.00,2014-04-19 06:35:00,
2014-04-19 01:40:00,55.7,41.2,30.07,SSE,155,14.0,16.0,58,0.00,,---,0.00,VWS V15.00,2014-04-19 06:40:00,
2014-04-19 01:45:00,55.7,41.2,30.07,SE,141,13.0,16.0,58,0.00,,---,0.00,VWS V15.00,2014-04-19 06:45:00,
2014-04-19 01:50:00,55.6,41.1,30.07,SSE,148,8.0,16.0,58,0.00,,---,0.00,VWS V15.00,2014-04-19 06:50:00,
2014-04-19 01:55:00,55.5,41.4,30.07,SE,144,13.0,16.0,59,0.00,,---,0.00,VWS V15.00,2014-04-19 06:55:00,
2014-04-19 02:00:00,55.5,41.4,30.07,SE,145,14.0,16.0,59,0.00,,---,0.00,VWS V15.00,2014-04-19 07:00:00,
2014-04-19 02:05:00,55.5,41.4,30.06,SSE,148,13.0,17.0,59,0.00,,---,0.00,VWS V15.00,2014-04-19 07:05:00,
2014-04-19 02:10:00,55.5,41.4,30.06,SE,145,12.0,16.0,59,0.00,,---,0.00,VWS V15.00,2014-04-19 07:10:00,
2014-04-19 02:15:00,55.4,41.3,30.06,SE,144,11.0,17.0,59,0.00,,---,0.00,VWS V15.00,2014-04-19 07:15:00,
2014-04-19 02:20:00,55.3,41.2,30.06,SSE,153,14.0,17.0,59,0.00,,---,0.00,VWS V15.00,2014-04-19 07:20:00,
2014-04-19 02:25:00,54.9,41.3,30.06,SSE,149,10.0,14.0,60,0.00,,---,0.00,VWS V15.00,2014-04-19 07:25:00,
2014-04-19 02:30:00,55.0,41.4,30.06,SSE,154,11.0,15.0,60,0.00,,---,0.00,VWS V15.00,2014-04-19 07:30:00,
2014-04-19 02:35:00,55.1,41.5,30.05,SSE,153,15.0,17.0,60,0.00,,---,0.00,VWS V15.00,2014-04-19 07:35:00,
2014-04-19 02:40:00,55.0,41.4,30.06,SSE,153,11.0,15.0,60,0.00,,---,0.00,VWS V15.00,2014-04-19 07:40:00,
2014-04-19 02:45:00,55.0,41.4,30.06,SSE,158,13.0,14.0,60,0.00,,---,0.00,VWS V15.00,2014-04-19 07:45:00,
2014-04-19 02:50:00,54.9,41.3,30.06,SSE,153,10.0,14.0,60,0.00,,---,0.00,VWS V15.00,2014-04-19 07:50:00,
2014-04-19 02:55:00,54.9,41.3,30.06,SSE,157,8.0,13.0,60,0.00,,---,0.00,VWS V15.00,2014-04-19 07:55:00,
2014-04-19 03:00:00,55.0,41.4,30.06,SSE,150,10.0,14.0,60,0.00,,---,0.00,VWS V15.00,2014-04-19 08:00:00,
2014-04-19 03:05:00,54.9,41.3,30.05,SSE,155,11.0,14.0,60,0.00,,---,0.00,VWS V15.00,2014-04-19 08:05:00,
2014-04-19 03:10:00,54.7,41.1,30.05,South,174,10.0,13.0,60,0.00,,---,0.00,VWS V15.00,2014-04-19 08:10:00,
2014-04-19 03:15:00,54.4,41.2,30.05,South,180,8.0,12.0,61,0.00,,---,0.00,VWS V15.00,2014-04-19 08:15:00,
2014-04-19 03:20:00,54.0,41.3,30.05,South,176,9.0,11.0,62,0.00,,---,0.00,VWS V15.00,2014-04-19 08:20:00,
2014-04-19 03:25:00,53.6,40.9,30.05,SSE,155,8.0,12.0,62,0.00,,---,0.00,VWS V15.00,2014-04-19 08:25:00,
2014-04-19 03:30:00,53.3,41.0,30.05,SSE,159,7.0,11.0,63,0.00,,---,0.00,VWS V15.00,2014-04-19 08:30:00,
2014-04-19 03:35:00,53.0,40.8,30.05,SSE,156,9.0,11.0,63,0.00,,---,0.00,VWS V15.00,2014-04-19 08:35:00,
2014-04-19 03:40:00,52.6,40.8,30.05,SSE,152,8.0,10.0,64,0.00,,---,0.00,VWS V15.00,2014-04-19 08:40:00,
2014-04-19 03:45:00,52.3,40.9,30.05,SSE,158,8.0,10.0,65,0.00,,---,0.00,VWS V15.00,2014-04-19 08:45:00,
2014-04-19 03:50:00,52.1,40.7,30.05,SSE,160,8.0,9.0,65,0.00,,---,0.00,VWS V15.00,2014-04-19 08:50:00,
2014-04-19 03:55:00,51.9,40.5,30.05,SSE,153,9.0,10.0,65,0.00,,---,0.00,VWS V15.00,2014-04-19 08:55:00,
2014-04-19 04:00:00,51.7,40.7,30.04,SSE,148,8.0,10.0,66,0.00,,---,0.00,VWS V15.00,2014-04-19 09:00:00,
2014-04-19 04:05:00,51.4,40.4,30.04,SSE,150,10.0,11.0,66,0.00,,---,0.00,VWS V15.00,2014-04-19 09:05:00,
2014-04-19 04:10:00,51.4,40.8,30.04,SSE,149,9.0,11.0,67,0.00,,---,0.00,VWS V15.00,2014-04-19 09:10:00,
2014-04-19 04:15:00,51.5,40.9,30.04,SE,144,9.0,11.0,67,0.00,,---,0.00,VWS V15.00,2014-04-19 09:15:00,
2014-04-19 04:20:00,51.7,41.1,30.04,SSE,155,11.0,13.0,67,0.00,,---,0.00,VWS V15.00,2014-04-19 09:20:00,
2014-04-19 04:25:00,52.2,41.2,30.04,SSE,155,11.0,14.0,66,0.00,,---,0.00,VWS V15.00,2014-04-19 09:25:00,
2014-04-19 04:30:00,52.5,41.5,30.04,SSE,149,10.0,13.0,66,0.00,,---,0.00,VWS V15.00,2014-04-19 09:30:00,
2014-04-19 04:35:00,52.7,41.3,30.04,SSE,150,10.0,15.0,65,0.00,,---,0.00,VWS V15.00,2014-04-19 09:35:00,
2014-04-19 04:40:00,53.0,41.6,30.04,SE,143,11.0,16.0,65,0.00,,---,0.00,VWS V15.00,2014-04-19 09:40:00,
2014-04-19 04:45:00,53.1,41.3,30.04,SSE,158,10.0,15.0,64,0.00,,---,0.00,VWS V15.00,2014-04-19 09:45:00,
2014-04-19 04:50:00,53.2,41.3,30.04,SE,141,10.0,14.0,64,0.00,,---,0.00,VWS V15.00,2014-04-19 09:50:00,
2014-04-19 04:55:00,53.4,41.5,30.04,South,175,11.0,15.0,64,0.00,,---,0.00,VWS V15.00,2014-04-19 09:55:00,
2014-04-19 05:00:00,53.7,41.8,30.04,SSE,165,11.0,16.0,64,0.00,,---,0.00,VWS V15.00,2014-04-19 10:00:00,
2014-04-19 05:05:00,54.0,41.7,30.04,SSE,162,12.0,17.0,63,0.00,,---,0.00,VWS V15.00,2014-04-19 10:05:00,
2014-04-19 05:10:00,54.1,41.8,30.04,SSE,162,13.0,17.0,63,0.00,,---,0.00,VWS V15.00,2014-04-19 10:10:00,
2014-04-19 05:15:00,54.1,41.8,30.04,South,169,10.0,17.0,63,0.00,,---,0.00,VWS V15.00,2014-04-19 10:15:00,
2014-04-19 05:20:00,54.0,41.7,30.04,SSE,163,13.0,15.0,63,0.00,,---,0.00,VWS V15.00,2014-04-19 10:20:00,
2014-04-19 05:25:00,53.9,41.6,30.04,South,173,13.0,17.0,63,0.00,,---,0.00,VWS V15.00,2014-04-19 10:25:00,
2014-04-19 05:30:00,53.7,41.8,30.04,South,188,10.0,14.0,64,0.00,,---,0.00,VWS V15.00,2014-04-19 10:30:00,
2014-04-19 05:35:00,53.4,41.5,30.04,SSE,167,8.0,11.0,64,0.00,,---,0.00,VWS V15.00,2014-04-19 10:35:00,
2014-04-19 05:40:00,53.0,41.6,30.04,South,172,11.0,13.0,65,0.00,,---,0.00,VWS V15.00,2014-04-19 10:40:00,
2014-04-19 05:45:00,52.8,41.8,30.04,SSE,167,13.0,13.0,66,0.00,,---,0.00,VWS V15.00,2014-04-19 10:45:00,
2014-04-19 05:50:00,52.8,41.8,30.04,South,175,9.0,11.0,66,0.00,,---,0.00,VWS V15.00,2014-04-19 10:50:00,
2014-04-19 05:55:00,52.9,41.9,30.04,SSE,166,12.0,12.0,66,0.00,,---,0.00,VWS V15.00,2014-04-19 10:55:00,
2014-04-19 06:00:00,53.0,42.0,30.04,SSE,162,15.0,15.0,66,0.00,,---,0.00,VWS V15.00,2014-04-19 11:00:00,
2014-04-19 06:05:00,53.2,42.2,30.04,SSE,147,11.0,12.0,66,0.00,,---,0.00,VWS V15.00,2014-04-19 11:05:00,
2014-04-19 06:10:00,53.1,42.1,30.04,South,170,11.0,12.0,66,0.00,,---,0.00,VWS V15.00,2014-04-19 11:10:00,
2014-04-19 06:15:00,53.2,42.2,30.04,SSE,160,14.0,14.0,66,0.00,,---,0.00,VWS V15.00,2014-04-19 11:15:00,
2014-04-19 06:20:00,53.2,42.2,30.04,SSE,167,11.0,11.0,66,0.00,,---,0.00,VWS V15.00,2014-04-19 11:20:00,
2014-04-19 06:25:00,53.2,42.5,30.04,South,176,11.0,11.0,67,0.00,,---,0.00,VWS V15.00,2014-04-19 11:25:00,
2014-04-19 06:30:00,53.1,42.5,30.04,SE,143,8.0,9.0,67,0.00,,---,0.00,VWS V15.00,2014-04-19 11:30:00,
2014-04-19 06:35:00,52.9,42.3,30.04,SSW,198,13.0,14.0,67,0.00,,---,0.00,VWS V15.00,2014-04-19 11:35:00,
2014-04-19 06:40:00,52.8,42.5,30.04,South,190,9.0,10.0,68,0.00,,---,0.00,VWS V15.00,2014-04-19 11:40:00,
2014-04-19 06:45:00,52.7,42.5,30.04,South,173,11.0,14.0,68,0.00,,---,0.00,VWS V15.00,2014-04-19 11:45:00,
2014-04-19 06:50:00,52.7,42.5,30.04,South,173,10.0,12.0,68,0.00,,---,0.00,VWS V15.00,2014-04-19 11:50:00,
2014-04-19 06:55:00,52.7,42.8,30.05,South,169,12.0,14.0,69,0.00,,---,0.00,VWS V15.00,2014-04-19 11:55:00,
2014-04-19 07:00:00,52.7,42.8,30.05,South,170,14.0,16.0,69,0.00,,---,0.00,VWS V15.00,2014-04-19 12:00:00,
2014-04-19 07:05:00,52.9,43.0,30.04,SSE,158,14.0,15.0,69,0.00,,---,0.00,VWS V15.00,2014-04-19 12:05:00,
2014-04-19 07:10:00,53.2,43.3,30.04,SSE,150,14.0,16.0,69,0.00,,---,0.00,VWS V15.00,2014-04-19 12:10:00,
2014-04-19 07:15:00,53.3,43.4,30.04,SSE,162,11.0,13.0,69,0.00,,---,0.00,VWS V15.00,2014-04-19 12:15:00,
2014-04-19 07:20:00,53.4,43.5,30.05,SSE,167,12.0,13.0,69,0.00,,---,0.00,VWS V15.00,2014-04-19 12:20:00,
2014-04-19 07:25:00,53.7,43.4,30.05,SSE,160,14.0,14.0,68,0.00,,---,0.00,VWS V15.00,2014-04-19 12:25:00,
2014-04-19 07:30:00,54.0,43.7,30.05,SSE,159,9.0,12.0,68,0.00,,---,0.00,VWS V15.00,2014-04-19 12:30:00,
2014-04-19 07:35:00,54.1,43.8,30.05,SSE,165,11.0,11.0,68,0.00,,---,0.00,VWS V15.00,2014-04-19 12:35:00,
2014-04-19 07:40:00,54.3,44.0,30.05,SSE,165,8.0,15.0,68,0.00,,---,0.00,VWS V15.00,2014-04-19 12:40:00,
2014-04-19 07:45:00,54.4,44.1,30.05,SSE,166,12.0,14.0,68,0.00,,---,0.00,VWS V15.00,2014-04-19 12:45:00,
2014-04-19 07:50:00,54.5,44.2,30.05,SSE,167,16.0,17.0,68,0.00,,---,0.00,VWS V15.00,2014-04-19 12:50:00,
2014-04-19 07:55:00,54.9,44.5,30.05,South,176,10.0,16.0,68,0.00,,---,0.00,VWS V15.00,2014-04-19 12:55:00,
2014-04-19 08:00:00,55.2,44.8,30.05,South,191,11.0,13.0,68,0.00,,---,0.00,VWS V15.00,2014-04-19 13:00:00,
2014-04-19 08:05:00,55.7,45.7,30.05,SSW,198,10.0,12.0,69,0.00,,---,0.00,VWS V15.00,2014-04-19 13:05:00,
2014-04-19 08:10:00,56.6,46.2,30.05,South,179,8.0,14.0,68,0.00,,---,0.00,VWS V15.00,2014-04-19 13:10:00,
2014-04-19 08:15:00,57.4,46.5,30.05,South,188,10.0,14.0,67,0.00,,---,0.00,VWS V15.00,2014-04-19 13:15:00,
2014-04-19 08:20:00,58.0,47.1,30.05,South,173,13.0,19.0,67,0.00,,---,0.00,VWS V15.00,2014-04-19 13:20:00,
2014-04-19 08:25:00,58.5,47.6,30.05,SSW,200,15.0,19.0,67,0.00,,---,0.00,VWS V15.00,2014-04-19 13:25:00,
2014-04-19 08:30:00,58.9,47.6,30.05,SSW,205,10.0,14.0,66,0.00,,---,0.00,VWS V15.00,2014-04-19 13:30:00,
2014-04-19 08:35:00,59.1,47.8,30.05,SSW,203,16.0,17.0,66,0.00,,---,0.00,VWS V15.00,2014-04-19 13:35:00,
2014-04-19 08:40:00,59.4,48.0,30.05,SSW,208,11.0,24.0,66,0.00,,---,0.00,VWS V15.00,2014-04-19 13:40:00,
2014-04-19 08:45:00,59.6,47.8,30.05,SSW,197,16.0,23.0,65,0.00,,---,0.00,VWS V15.00,2014-04-19 13:45:00,
2014-04-19 08:50:00,59.6,47.8,30.05,South,191,13.0,16.0,65,0.00,,---,0.00,VWS V15.00,2014-04-19 13:50:00,
2014-04-19 08:55:00,59.6,47.4,30.05,SSW,201,13.0,21.0,64,0.00,,---,0.00,VWS V15.00,2014-04-19 13:55:00,
2014-04-19 09:00:00,59.5,47.3,30.05,SSW,208,14.0,16.0,64,0.00,,---,0.00,VWS V15.00,2014-04-19 14:00:00,
2014-04-19 09:05:00,59.6,47.4,30.05,SSW,211,19.0,21.0,64,0.00,,---,0.00,VWS V15.00,2014-04-19 14:05:00,
2014-04-19 09:10:00,59.7,47.5,30.05,SSW,204,18.0,22.0,64,0.00,,---,0.00,VWS V15.00,2014-04-19 14:10:00,
2014-04-19 09:15:00,59.8,47.2,30.05,SSE,167,19.0,25.0,63,0.00,,---,0.00,VWS V15.00,2014-04-19 14:15:00,
2014-04-19 09:20:00,59.9,47.3,30.05,South,181,21.0,21.0,63,0.00,,---,0.00,VWS V15.00,2014-04-19 14:20:00,
2014-04-19 09:25:00,60.1,47.5,30.04,South,184,18.0,23.0,63,0.00,,---,0.00,VWS V15.00,2014-04-19 14:25:00,
2014-04-19 09:30:00,60.3,47.7,30.04,South,188,25.0,25.0,63,0.00,,---,0.00,VWS V15.00,2014-04-19 14:30:00,
2014-04-19 09:35:00,60.4,47.8,30.04,SSW,200,15.0,23.0,63,0.00,,---,0.00,VWS V15.00,2014-04-19 14:35:00,
2014-04-19 09:40:00,60.7,47.2,30.04,SSW,194,22.0,22.0,61,0.00,,---,0.00,VWS V15.00,2014-04-19 14:40:00,
2014-04-19 09:45:00,61.3,47.3,30.04,South,191,18.0,22.0,60,0.00,,---,0.00,VWS V15.00,2014-04-19 14:45:00,
2014-04-19 09:50:00,61.9,47.0,30.04,SSW,205,26.0,33.0,58,0.00,,---,0.00,VWS V15.00,2014-04-19 14:50:00,
2014-04-19 09:55:00,62.1,47.2,30.04,SSW,202,20.0,22.0,58,0.00,,---,0.00,VWS V15.00,2014-04-19 14:55:00,
2014-04-19 10:01:00,62.6,47.6,30.04,South,190,18.0,22.0,58,0.00,,---,0.00,VWS V15.00,2014-04-19 15:01:00,
2014-04-19 10:06:00,62.7,46.8,30.04,South,190,27.0,29.0,56,0.00,,---,0.00,VWS V15.00,2014-04-19 15:06:00,
2014-04-19 10:11:00,62.8,47.4,30.04,South,188,26.0,26.0,57,0.00,,---,0.00,VWS V15.00,2014-04-19 15:11:00,
2014-04-19 10:16:00,63.0,47.1,30.03,SSW,202,18.0,23.0,56,0.00,,---,0.00,VWS V15.00,2014-04-19 15:16:00,
2014-04-19 10:21:00,63.4,47.9,30.04,SSW,198,17.0,24.0,57,0.00,,---,0.00,VWS V15.00,2014-04-19 15:21:00,
2014-04-19 10:26:00,64.0,48.0,30.03,SSW,197,20.0,25.0,56,0.00,,---,0.00,VWS V15.00,2014-04-19 15:26:00,
2014-04-19 10:31:00,64.6,48.1,30.03,SW,221,18.0,25.0,55,0.00,,---,0.00,VWS V15.00,2014-04-19 15:31:00,
2014-04-19 10:36:00,64.9,47.9,30.03,SSW,202,26.0,27.0,54,0.00,,---,0.00,VWS V15.00,2014-04-19 15:36:00,
2014-04-19 10:41:00,65.0,48.0,30.03,SSW,211,23.0,28.0,54,0.00,,---,0.00,VWS V15.00,2014-04-19 15:41:00,
2014-04-19 10:46:00,65.6,49.0,30.03,South,179,20.0,24.0,55,0.00,,---,0.00,VWS V15.00,2014-04-19 15:46:00,
2014-04-19 10:51:00,66.2,48.6,30.02,South,187,20.0,32.0,53,0.00,,---,0.00,VWS V15.00,2014-04-19 15:51:00,
2014-04-19 10:56:00,66.4,48.3,30.02,South,183,24.0,31.0,52,0.00,,---,0.00,VWS V15.00,2014-04-19 15:56:00,
2014-04-19 11:01:00,66.7,49.0,30.02,South,176,23.0,37.0,53,0.00,,---,0.00,VWS V15.00,2014-04-19 16:01:00,
2014-04-19 11:06:00,66.7,48.5,30.02,SSW,198,34.0,34.0,52,0.00,,---,0.00,VWS V15.00,2014-04-19 16:06:00,
2014-04-19 11:11:00,67.2,49.0,30.02,SSW,194,27.0,31.0,52,0.00,,---,0.00,VWS V15.00,2014-04-19 16:11:00,
2014-04-19 11:16:00,67.2,49.0,30.02,SSW,212,30.0,36.0,52,0.00,,---,0.00,VWS V15.00,2014-04-19 16:16:00,
2014-04-19 11:21:00,67.3,49.1,30.02,SSW,198,25.0,31.0,52,0.00,,---,0.00,VWS V15.00,2014-04-19 16:21:00,
2014-04-19 11:26:00,67.9,49.1,30.02,SSE,160,21.0,31.0,51,0.00,,---,0.00,VWS V15.00,2014-04-19 16:26:00,
2014-04-19 11:31:00,68.4,49.6,30.02,South,177,22.0,30.0,51,0.00,,---,0.00,VWS V15.00,2014-04-19 16:31:00,
2014-04-19 11:36:00,68.7,49.3,30.01,SSE,162,20.0,31.0,50,0.00,,---,0.00,VWS V15.00,2014-04-19 16:36:00,
2014-04-19 11:41:00,68.7,48.8,30.01,South,190,23.0,30.0,49,0.00,,---,0.00,VWS V15.00,2014-04-19 16:41:00,
2014-04-19 11:46:00,69.4,50.0,30.01,South,185,26.0,31.0,50,0.00,,---,0.00,VWS V15.00,2014-04-19 16:46:00,
2014-04-19 11:51:00,69.9,49.9,30.01,SSW,207,26.0,29.0,49,0.00,,---,0.00,VWS V15.00,2014-04-19 16:51:00,
2014-04-19 11:56:00,69.9,49.3,30.01,SSW,200,24.0,32.0,48,0.00,,---,0.00,VWS V15.00,2014-04-19 16:56:00,
2014-04-19 12:01:00,70.0,48.9,30.01,SSW,202,28.0,38.0,47,0.00,,---,0.00,VWS V15.00,2014-04-19 17:01:00,
2014-04-19 12:06:00,70.1,50.1,30.00,SSW,211,25.0,26.0,49,0.00,,---,0.00,VWS V15.00,2014-04-19 17:06:00,
2014-04-19 12:11:00,70.6,50.0,30.00,SSW,194,29.0,33.0,48,0.00,,---,0.00,VWS V15.00,2014-04-19 17:11:00,
2014-04-19 12:16:00,70.9,49.7,30.00,SSW,199,23.0,33.0,47,0.00,,---,0.00,VWS V15.00,2014-04-19 17:16:00,
2014-04-19 12:21:00,70.8,49.6,30.01,South,187,27.0,34.0,47,0.00,,---,0.00,VWS V15.00,2014-04-19 17:21:00,
2014-04-19 12:26:00,70.7,48.9,30.00,South,176,33.0,34.0,46,0.00,,---,0.00,VWS V15.00,2014-04-19 17:26:00,
2014-04-19 12:31:00,70.7,49.5,30.00,South,186,23.0,30.0,47,0.00,,---,0.00,VWS V15.00,2014-04-19 17:31:00,
2014-04-19 12:36:00,71.3,49.5,30.00,SSW,200,30.0,30.0,46,0.00,,---,0.00,VWS V15.00,2014-04-19 17:36:00,
2014-04-19 12:41:00,71.4,49.6,30.00,SSW,201,27.0,27.0,46,0.00,,---,0.00,VWS V15.00,2014-04-19 17:41:00,
2014-04-19 12:46:00,71.9,49.4,29.99,SSW,203,24.0,33.0,45,0.00,,---,0.00,VWS V15.00,2014-04-19 17:46:00,
2014-04-19 12:51:00,72.1,49.6,29.99,SSW,194,28.0,37.0,45,0.00,,---,0.00,VWS V15.00,2014-04-19 17:51:00,
2014-04-19 12:56:00,72.1,49.0,29.99,South,180,29.0,32.0,44,0.00,,---,0.00,VWS V15.00,2014-04-19 17:56:00,
2014-04-19 13:01:00,72.5,49.4,29.98,South,172,20.0,30.0,44,0.00,,---,0.00,VWS V15.00,2014-04-19 18:01:00,
2014-04-19 13:06:00,72.7,50.2,29.98,SSE,165,24.0,30.0,45,0.00,,---,0.00,VWS V15.00,2014-04-19 18:06:00,
2014-04-19 13:11:00,72.6,50.1,29.98,SSE,163,27.0,32.0,45,0.00,,---,0.00,VWS V15.00,2014-04-19 18:11:00,
2014-04-19 13:16:00,72.6,49.5,29.98,South,177,27.0,27.0,44,0.00,,---,0.00,VWS V15.00,2014-04-19 18:16:00,
2014-04-19 13:21:00,72.6,50.1,29.97,SSE,163,33.0,33.0,45,0.00,,---,0.00,VWS V15.00,2014-04-19 18:21:00,
2014-04-19 13:26:00,73.2,50.0,29.97,South,171,24.0,34.0,44,0.00,,---,0.00,VWS V15.00,2014-04-19 18:26:00,
2014-04-19 13:31:00,73.8,50.5,29.97,SSW,193,28.0,35.0,44,0.00,,---,0.00,VWS V15.00,2014-04-19 18:31:00,
2014-04-19 13:36:00,73.9,50.6,29.97,SSW,200,17.0,29.0,44,0.00,,---,0.00,VWS V15.00,2014-04-19 18:36:00,
2014-04-19 13:41:00,73.7,50.5,29.97,SSW,207,21.0,29.0,44,0.00,,---,0.00,VWS V15.00,2014-04-19 18:41:00,
2014-04-19 13:46:00,74.2,50.3,29.97,South,176,32.0,33.0,43,0.00,,---,0.00,VWS V15.00,2014-04-19 18:46:00,
2014-04-19 13:51:00,74.0,50.1,29.97,SSW,210,17.0,31.0,43,0.00,,---,0.00,VWS V15.00,2014-04-19 18:51:00,
2014-04-19 13:56:00,73.6,50.4,29.97,South,174,23.0,30.0,44,0.00,,---,0.00,VWS V15.00,2014-04-19 18:56:00,
2014-04-19 14:01:00,72.9,49.7,29.97,South,183,21.0,31.0,44,0.00,,---,0.00,VWS V15.00,2014-04-19 19:01:00,
2014-04-19 14:06:00,72.9,50.3,29.97,SSW,205,22.0,26.0,45,0.00,,---,0.00,VWS V15.00,2014-04-19 19:06:00,
2014-04-19 14:11:00,72.9,49.7,29.97,SSE,163,28.0,33.0,44,0.00,,---,0.00,VWS V15.00,2014-04-19 19:11:00,
2014-04-19 14:16:00,73.2,50.6,29.97,South,176,16.0,25.0,45,0.00,,---,0.00,VWS V15.00,2014-04-19 19:16:00,
2014-04-19 14:22:00,73.7,49.8,29.97,South,175,24.0,29.0,43,0.00,,---,0.00,VWS V15.00,2014-04-19 19:22:00,
2014-04-19 14:27:00,73.9,50.6,29.96,South,187,21.0,24.0,44,0.00,,---,0.00,VWS V15.00,2014-04-19 19:27:00,
2014-04-19 14:32:00,74.3,50.4,29.96,SSW,208,27.0,30.0,43,0.00,,---,0.00,VWS V15.00,2014-04-19 19:32:00,
2014-04-19 14:37:00,74.5,50.6,29.96,South,173,25.0,33.0,43,0.00,,---,0.00,VWS V15.00,2014-04-19 19:37:00,
2014-04-19 14:42:00,74.4,51.1,29.96,South,173,19.0,25.0,44,0.00,,---,0.00,VWS V15.00,2014-04-19 19:42:00,
2014-04-19 14:47:00,74.7,50.7,29.95,South,187,18.0,23.0,43,0.00,,---,0.00,VWS V15.00,2014-04-19 19:47:00,
2014-04-19 14:52:00,74.4,50.5,29.95,SSE,148,20.0,31.0,43,0.00,,---,0.00,VWS V15.00,2014-04-19 19:52:00,
2014-04-19 14:57:00,74.7,50.7,29.95,South,170,27.0,31.0,43,0.00,,---,0.00,VWS V15.00,2014-04-19 19:57:00,
2014-04-19 15:02:00,75.3,50.7,29.95,SSE,166,20.0,29.0,42,0.00,,---,0.00,VWS V15.00,2014-04-19 20:02:00,
2014-04-19 15:07:00,75.9,50.5,29.95,South,175,20.0,31.0,41,0.00,,---,0.00,VWS V15.00,2014-04-19 20:07:00,
2014-04-19 15:12:00,76.0,50.6,29.95,South,178,24.0,29.0,41,0.00,,---,0.00,VWS V15.00,2014-04-19 20:12:00,
2014-04-19 15:17:00,76.0,51.3,29.95,SSW,193,16.0,29.0,42,0.00,,---,0.00,VWS V15.00,2014-04-19 20:17:00,
2014-04-19 15:22:00,76.4,51.6,29.95,South,172,23.0,25.0,42,0.00,,---,0.00,VWS V15.00,2014-04-19 20:22:00,
2014-04-19 15:27:00,76.9,50.8,29.94,South,170,13.0,29.0,40,0.00,,---,0.00,VWS V15.00,2014-04-19 20:27:00,
2014-04-19 15:32:00,77.4,51.2,29.94,SSE,160,20.0,24.0,40,0.00,,---,0.00,VWS V15.00,2014-04-19 20:32:00,
2014-04-19 15:37:00,77.3,51.1,29.94,SSE,156,28.0,35.0,40,0.00,,---,0.00,VWS V15.00,2014-04-19 20:37:00,
2014-04-19 15:42:00,77.2,51.0,29.94,SSE,156,19.0,28.0,40,0.00,,---,0.00,VWS V15.00,2014-04-19 20:42:00,
2014-04-19 15:47:00,76.8,50.7,29.93,South,169,28.0,34.0,40,0.00,,---,0.00,VWS V15.00,2014-04-19 20:47:00,
2014-04-19 15:52:00,76.7,50.6,29.93,South,172,24.0,30.0,40,0.00,,---,0.00,VWS V15.00,2014-04-19 20:52:00,
2014-04-19 15:57:00,76.7,51.2,29.93,SSE,167,23.0,29.0,41,0.00,,---,0.00,VWS V15.00,2014-04-19 20:57:00,
2014-04-19 16:02:00,77.2,51.0,29.93,South,173,20.0,32.0,40,0.00,,---,0.00,VWS V15.00,2014-04-19 21:02:00,
2014-04-19 16:07:00,77.5,51.3,29.93,South,184,30.0,34.0,40,0.00,,---,0.00,VWS V15.00,2014-04-19 21:07:00,